Lapse_Rate
7.9 7.6 7.1 7.0 7.2 7.3 7.1 7.0 6.6 6.5 6.4 6.1 6.1 5.8 6.5 6.3 6.0 6.2 6.6 6.6 6.4 6.3 6.4 6.4 6.3 6.0 6.0 6.0 6.2 6.3 6.3 6.4
7.6 7.4 7.3 7.1 7.2 7.1 6.9 6.8 6.6 6.5 6.5 6.4 6.2 6.2 6.1 5.9 6.1 6.3 6.3 6.1 6.2 6.2 6.2 6.4 6.7 6.5 6.7 6.8 6.7 6.6 6.6 6.6
7.6 7.5 7.4 7.2 7.2 7.3 7.1 6.9 6.5 6.4 6.3 6.2 6.0 6.1 6.1 6.2 6.1 6.0 5.9 5.8 6.1 6.3 6.6 6.5 6.5 6.6 6.3 6.2 6.3 6.3 6.2 6.0
8.0 7.8 7.7 7.6 7.5 7.3 7.1 6.9 6.7 6.5 6.5 6.2 6.1 6.0 5.8 5.7 5.8 5.6 5.7 5.8 5.9 6.1 6.2 6.2 6.1 6.0 6.0 5.9 5.8 5.8 5.7 5.6
8.1 7.9 7.9 7.6 7.4 7.3 6.8 6.7 6.6 6.4 6.1 5.9 5.5 5.4 5.1 5.3 5.1 5.1 4.9 5.4 5.5 5.7 5.7 5.8 5.9 5.8 5.8 5.7 5.8 5.6 5.4 5.2
7.9 7.9 7.7 7.5 7.3 7.0 6.7 6.4 6.0 5.8 5.6 5.5 5.5 5.5 5.2 4.9 4.9 5.0 5.1 5.2 5.7 5.7 5.6 5.6 5.6 5.7 5.9 5.7 5.5 5.4 4.9 4.7
7.6 7.5 7.3 7.1 6.9 6.7 6.5 6.3 5.9 5.8 5.7 5.6 5.6 5.5 5.4 5.3 5.5 5.4 5.3 5.3 5.2 5.3 5.3 5.4 5.5 5.5 5.4 5.0 4.9 4.7 4.3 4.0
7.4 7.2 6.9 6.7 6.6 6.4 6.3 6.1 5.9 5.8 5.6 5.6 5.7 5.6 5.5 5.4 5.8 5.2 5.5 5.5 5.5 5.6 5.7 5.6 5.5 5.3 5.2 5.0 4.8 4.4 4.0 3.8
6.9 6.7 6.6 6.6 6.4 6.3 6.1 6.0 5.9 5.8 5.8 5.8 5.7 5.7 5.6 5.7 5.3 5.7 5.5 5.7 5.7 5.7 5.7 5.6 5.4 5.3 5.0 4.8 4.3 4.2 3.9 4.0
6.7 6.6 6.5 6.3 6.2 6.2 6.0 5.9 5.8 5.9 5.9 5.7 5.9 5.8 5.9 5.6 5.5 5.7 5.8 5.7 5.7 5.5 5.3 5.3 5.2 5.0 4.9 4.8 4.4 4.0 4.0 4.0
6.5 6.5 6.4 6.3 6.3 6.3 6.1 5.9 5.9 5.9 5.9 5.9 5.9 5.6 5.7 5.8 5.9 5.8 5.6 5.7 5.6 5.4 5.3 5.3 5.2 5.1 5.0 4.9 4.4 4.2 4.1 4.2
5.9 6.4 6.6 6.5 6.4 6.4 6.2 6.0 6.0 5.9 6.0 6.0 5.8 5.9 5.9 5.8 5.8 5.5 5.5 5.5 5.4 5.3 5.4 5.3 5.2 5.0 4.9 4.6 4.2 4.0 4.2 4.3
6.0 6.3 6.7 6.6 6.5 6.4 6.4 6.3 6.1 6.0 6.2 6.0 5.9 6.0 5.9 5.7 5.5 5.5 5.5 5.5 5.4 5.4 5.3 5.1 5.0 4.8 4.8 4.8 4.5 4.4 4.3 4.9
6.2 6.1 6.8 6.7 6.7 6.5 6.5 6.4 6.1 6.3 6.3 6.1 6.0 5.8 5.6 5.4 5.4 5.5 5.5 5.4 5.2 5.1 5.0 4.9 4.8 4.8 4.8 4.6 4.4 4.3 4.7 5.5
6.2 6.2 6.9 6.8 6.8 6.7 6.6 6.4 6.4 6.3 6.4 6.2 5.9 5.4 5.2 5.2 5.4 5.5 5.4 5.2 5.0 4.9 4.9 5.0 5.0 4.8 4.6 4.4 4.3 4.3 5.2 5.8
7.1 7.0 6.9 6.9 6.9 6.9 6.7 6.5 6.5 6.3 6.2 6.1 5.6 5.3 5.2 5.3 5.4 5.4 5.3 5.2 5.1 4.9 4.9 4.9 4.8 4.7 4.7 4.5 4.7 5.3 5.7 6.4
7.1 7.0 7.0 6.9 6.8 6.9 6.5 6.5 6.3 6.4 6.2 6.0 5.5 5.2 5.2 5.2 4.9 5.0 5.3 5.1 4.9 4.7 4.7 4.7 4.7 4.6 5.0 4.8 5.2 5.8 6.3 6.7
6.9 7.1 7.2 6.9 6.8 6.8 6.6 6.3 6.4 6.4 6.1 5.8 5.3 4.8 5.1 4.8 4.9 5.2 5.0 4.9 4.7 4.7 4.7 4.8 4.9 4.6 5.1 5.1 5.6 6.1 6.7 6.9
7.1 7.2 7.3 7.0 6.8 6.8 6.4 6.3 6.3 6.2 6.1 5.2 4.5 4.6 4.6 4.6 5.3 5.1 5.0 4.9 4.8 4.7 4.5 4.9 4.8 4.7 5.7 5.4 5.9 6.7 6.9 7.1
Wind_Speed
9 9 10 12 13 13 14 13 14 11 8 8 3 5 5 8 6 7 8 6 4 4 4 2 6 6 5 6 8 9 9 10
9 9 9 11 14 14 14 14 14 9 6 5 5 5 5 4 7 6 6 6 5 1 2 2 5 4 4 6 8 11 9 10
11 10 11 12 13 12 11 13 13 9 6 6 6 7 7 6 6 6 6 5 3 1 4 5 4 6 8 7 9 8 9 9
12 12 13 12 12 13 11 13 14 10 10 7 6 6 6 5 6 6 5 3 2 1 3 6 7 9 7 8 8 10 9 10
14 14 11 13 11 11 14 16 14 9 10 9 10 7 5 3 3 3 5 2 2 4 5 8 9 10 8 8 9 8 10 11
15 15 17 17 16 14 12 11 12 11 8 6 5 3 3 3 3 3 3 4 7 6 7 8 11 12 12 10 10 9 9 10
15 15 15 13 11 11 12 12 11 10 8 6 4 5 3 2 3 3 3 4 6 8 10 12 13 14 12 10 10 12 10 9
16 16 15 14 13 12 11 12 11 9 9 8 7 6 4 3 2 3 4 5 6 8 12 13 12 15 16 14 7 10 12 10
16 16 14 13 13 13 12 12 11 10 9 8 6 5 2 1 0 3 4 5 6 10 11 13 15 16 17 16 7 7 10 9
17 16 14 13 13 13 12 12 12 11 9 7 6 4 2 1 2 2 3 4 5 8 12 14 16 18 18 17 9 7 10 11
16 15 14 13 13 11 11 11 11 10 10 7 5 3 5 3 3 3 3 4 7 10 11 13 14 16 16 14 10 10 12 9
15 14 14 13 13 12 12 12 12 11 9 6 5 4 5 5 4 3 4 5 9 9 10 11 11 12 11 9 11 12 12 8
16 15 14 14 14 14 14 12 11 10 7 5 6 7 6 5 4 4 5 7 10 10 11 11 11 11 11 12 11 9 7 9
15 15 14 14 14 14 13 12 11 9 6 9 7 7 6 6 5 5 6 8 10 11 10 11 10 11 8 9 7 5 7 7
15 14 15 15 15 14 13 12 10 9 7 5 9 5 6 6 6 6 8 9 10 10 10 9 7 10 6 6 6 6 6 9
15 15 15 15 15 13 13 11 8 6 8 9 6 5 6 7 6 7 8 9 9 10 10 7 7 6 4 5 8 8 10 12
15 16 16 15 14 14 13 9 9 8 8 7 6 5 6 7 7 8 9 9 10 11 9 7 7 5 10 7 6 8 11 11
15 15 15 13 13 13 11 11 9 8 7 6 5 6 6 7 8 9 10 10 10 11 9 7 8 4 8 4 3 8 10 8
12 12 12 12 12 10 11 9 7 8 6 6 5 5 7 8 9 10 10 9 10 10 7 7 8 1 11 6 5 9 9 9
Wind_Direction
154 182 188 181 154 154 163 151 154 140 135 101 138 125 145 178 142 141 149 147 158 184 127 17 323 329 335 348 330 332 325 320
173 194 176 180 153 170 176 151 156 168 160 164 167 163 163 149 171 169 164 136 159 150 349 348 320 318 325 326 330 329 329 328
179 184 183 187 169 163 175 172 177 191 187 172 167 159 166 168 136 159 157 166 128 83 349 326 344 326 326 327 329 324 322 333
178 189 180 174 178 179 169 179 188 197 147 143 144 140 124 167 158 170 140 156 159 328 315 326 320 313 320 325 316 312 321 314
182 181 170 175 157 175 178 185 178 152 166 166 175 187 186 127 140 113 157 194 260 302 313 314 313 312 307 301 310 321 300 315
175 169 174 175 166 175 175 157 156 151 177 172 179 225 91 102 122 128 242 230 234 264 290 304 303 299 298 298 293 286 297 307
158 153 150 142 159 166 152 167 153 164 161 151 155 136 149 163 203 277 289 322 307 308 312 313 307 296 288 293 303 299 307 300
157 156 158 152 152 156 162 168 160 158 149 141 138 139 153 174 217 287 324 306 319 324 332 314 309 307 302 297 283 279 285 297
167 166 163 162 164 168 174 166 162 158 153 144 139 133 175 260 211 321 313 321 322 330 310 308 304 299 296 292 280 261 289 299
177 175 175 173 177 175 183 174 173 166 154 153 132 160 123 255 242 277 302 312 315 312 312 310 308 306 303 299 287 297 283 294
186 183 182 180 184 174 179 184 160 157 162 159 155 142 199 202 240 266 303 309 311 312 311 310 310 307 299 293 304 309 298 293
190 191 184 187 180 174 183 178 169 173 169 158 169 185 202 227 248 280 299 308 307 309 307 308 303 298 302 323 304 298 297 291
194 195 187 193 183 186 186 178 179 173 161 152 195 213 225 239 265 278 294 301 306 306 307 300 307 325 322 303 303 310 320 315
201 195 197 198 193 193 181 185 183 161 183 196 212 222 238 269 275 273 288 302 304 305 300 307 320 315 302 303 319 315 297 302
207 202 202 201 199 197 189 189 174 192 187 213 235 245 271 274 271 278 290 302 302 298 300 305 308 298 313 289 301 303 315 297
213 212 206 204 200 198 198 184 183 163 214 225 246 259 268 265 266 274 293 294 291 291 295 319 296 291 285 354 324 308 318 316
215 216 213 207 201 204 195 166 188 203 212 228 253 268 270 269 276 289 284 287 290 294 296 293 298 287 98 65 340 314 312 309
220 220 218 208 204 202 169 189 198 192 224 240 259 267 265 273 279 284 287 295 295 288 285 282 270 264 128 122 315 302 307 309
228 219 215 204 207 169 188 189 176 207 236 264 266 259 266 273 284 284 282 287 295 287 281 272 265 193 152 149 271 291 302 301